Waarnemingen

Advertentie
Mijn weer
Metz-Nancy-Lorraine, Frankrijk (7093): temperatuur & dauwpunt: 11.07.2019 00:00:00 - 17.07.2019 00:00:00 (CEST)Metz-Nancy-Lorraine, Frankrijk (7093): windsnelheid & windstoten: 11.07.2019 00:00:00 - 17.07.2019 00:00:00 (CEST)Metz-Nancy-Lorraine, Frankrijk (7093): windrichting: 11.07.2019 00:00:00 - 17.07.2019 00:00:00 (CEST)Metz-Nancy-Lorraine, Frankrijk (7093): luchtdruk: 11.07.2019 00:00:00 - 17.07.2019 00:00:00 (CEST)Metz-Nancy-Lorraine, Frankrijk (7093): zicht: 11.07.2019 00:00:00 - 17.07.2019 00:00:00 (CEST)Metz-Nancy-Lorraine, Frankrijk (7093): Zonneschijnduur: 11.07.2019 00:00:00 - 17.07.2019 00:00:00 (CEST)Metz-Nancy-Lorraine, Frankrijk (7093): neerslag: 11.07.2019 00:00:00 - 17.07.2019 00:00:00 (CEST)
Datum & Tijd tt [°C] td [°C] ff [km/u] ff [kn] fx [km/u] fx [kn] dd ppp [hPa] vv [km] sd [min] rr [mm]
17.07.2019 00:00:00 17,5 9,1 3 2 13 7 W 1016,2 26 0 0,0
16.07.2019 23:00:00 19,1 9,0 10 5 11 6 NO 1016,2 29 0 0,0
16.07.2019 22:00:00 20,4 9,3 8 4 12 7 NNO 1015,9 32 6 0,0
16.07.2019 21:00:00 22,0 9,5 9 5 16 9 NNO 1015,5 34 60 0,0
16.07.2019 20:00:00 23,3 8,9 8 5 19 10 N 1015,4 37 15 0,0
16.07.2019 19:00:00 24,6 8,1 8 5 26 14 NW 1015,4 26 41 0,0
16.07.2019 18:00:00 24,8 7,9 10 5 28 15 NW 1015,5 31 60 0,0
16.07.2019 17:00:00 24,5 7,6 8 4 28 15 WNW 1015,8 29 60 0,0
16.07.2019 16:00:00 24,6 6,8 7 4 24 13 N 1016,2 18 60 0,0
16.07.2019 15:00:00 23,5 8,4 8 4 22 12 W 1016,5 16 60 0,0
16.07.2019 14:00:00 22,4 9,5 10 6 25 14 WNW 1017,0 16 60 0,0
16.07.2019 13:00:00 21,3 9,5 8 4 21 11 NO 1017,6 15 60 0,0
16.07.2019 12:00:00 19,9 9,5 10 5 20 11 NNO 1018,2 16 60 0,0
16.07.2019 11:00:00 18,5 9,0 8 4 21 12 NO 1018,4 14 60 0,0
16.07.2019 10:00:00 16,9 9,3 10 6 23 13 NNO 1018,9 10 60 0,0
16.07.2019 09:00:00 14,8 9,6 9 5 16 9 NNO 1019,3 8 60 0,0
16.07.2019 08:00:00 12,6 9,4 8 4 11 6 N 1019,2 10 60 0,0
16.07.2019 07:00:00 11,2 9,1 4 2 7 4 NO 1019,4 8 45 0,0
16.07.2019 06:00:00 10,5 8,8 5 3 7 4 NNO 1019,4 6 0 0,0
16.07.2019 05:00:00 10,4 8,5 6 4 9 5 NO 1019,4 8 0 0,0
16.07.2019 04:00:00 11,3 8,9 7 4 9 5 NO 1019,6 9 0 0,0
16.07.2019 03:00:00 11,6 8,4 8 4 11 6 NO 1019,7 16 0 0,0
16.07.2019 02:00:00 12,2 8,8 13 7 15 8 NO 1019,5 24 0 0,0
16.07.2019 01:00:00 13,7 9,3 9 5 24 13 NO 1019,2 21 0 0,0
16.07.2019 00:00:00 14,9 9,9 13 7 23 12 N 1018,9 25 0 0,0
15.07.2019 23:00:00 16,3 9,9 10 5 19 10 N 1018,3 16 0 0,0
15.07.2019 22:00:00 17,8 9,9 8 4 22 12 NNO 1017,8 21 7 0,0
15.07.2019 21:00:00 19,6 10,3 14 7 29 16 N 1017,4 27 60 0,0
15.07.2019 20:00:00 21,0 10,5 21 12 28 15 N 1017,1 18 60 0,0
15.07.2019 19:00:00 21,5 10,3 21 11 34 18 NNW 1016,9 39 60 0,0
15.07.2019 18:00:00 21,7 10,8 19 10 38 21 N 1016,9 42 60 0,0
15.07.2019 17:00:00 21,9 10,1 22 12 34 19 NNW 1017,1 39 60 0,0
15.07.2019 16:00:00 21,7 9,9 16 9 37 20 NNO 1017,1 39 52 0,0
15.07.2019 15:00:00 21,3 9,8 16 8 35 19 NNO 1017,3 26 58 0,0
15.07.2019 14:00:00 20,1 9,3 19 11 36 19 N 1017,7 25 50 0,0
15.07.2019 13:00:00 19,1 9,3 18 10 39 21 N 1018,1 26 50 0,0
15.07.2019 12:00:00 17,9 9,0 21 11 38 21 N 1018,1 28 29 0,0
15.07.2019 11:00:00 17,3 9,0 25 14 38 21 NNO 1018,2 25 37 0,0
15.07.2019 10:00:00 16,7 8,6 25 13 37 20 NO 1018,4 24 7 0,0
15.07.2019 09:00:00 15,7 8,9 20 11 29 15 NO 1018,5 40 10 0,0
15.07.2019 08:00:00 13,7 9,5 14 7 21 12 NO 1018,5 36 0 0,0
15.07.2019 07:00:00 11,7 8,9 7 4 15 8 NNO 1018,6 20 10 0,0
15.07.2019 06:00:00 10,6 7,5 10 5 13 7 NO 1018,4 18 0 0,0
15.07.2019 05:00:00 10,7 7,8 9 5 11 6 NO 1018,2 21 0 0,0
15.07.2019 04:00:00 11,8 8,1 7 4 17 9 NNO 1018,2 13 0 0,0
15.07.2019 03:00:00 13,7 8,7 11 6 21 11 NO 1018,6 16 0 0,0
15.07.2019 02:00:00 11,9 8,2 15 8 18 10 NO 1018,8 15 0 0,0
15.07.2019 01:00:00 12,8 8,1 11 6 13 7 NO 1018,7 12 0 0,0
15.07.2019 00:00:00 13,4 7,8 6 4 14 8 NO 1018,7 15 0 0,0
14.07.2019 23:00:00 14,8 8,1 13 7 23 12 NO 1018,4 18 0 0,0
14.07.2019 22:00:00 16,4 8,1 16 9 36 19 NNO 1017,9 22 7 0,0
14.07.2019 21:00:00 18,2 8,2 27 15 40 21 NNO 1017,3 25 60 0,0
14.07.2019 20:00:00 19,8 8,5 26 14 41 22 NNO 1016,7 20 36 0,0
14.07.2019 19:00:00 20,7 8,7 24 13 37 20 NNO 1016,6 53 8 0,0
14.07.2019 18:00:00 21,1 8,7 21 11 35 19 N 1016,3 50 6 0,0
14.07.2019 17:00:00 21,6 8,8 18 10 35 19 N 1016,2 40 36 0,0
14.07.2019 16:00:00 21,1 9,7 19 10 35 19 N 1016,5 30 17 0,0
14.07.2019 15:00:00 21,0 10,2 20 11 39 21 N 1016,8 27 28 0,0
14.07.2019 14:00:00 20,2 11,4 16 9 31 17 NNO 1017,3 21 31 0,0
14.07.2019 13:00:00 18,6 11,7 19 10 30 16 N 1017,8 20 5 0,0
14.07.2019 12:00:00 18,1 12,1 19 10 29 16 N 1017,9 20 4 0,0
14.07.2019 11:00:00 17,9 12,1 18 10 30 16 NO 1017,9 20 16 0,0
14.07.2019 10:00:00 16,3 11,9 19 11 30 16 NNO 1018,2 26 0 0,0
14.07.2019 09:00:00 15,7 11,9 20 11 30 16 N 1017,9 23 0 0,0
14.07.2019 08:00:00 15,5 13,2 15 8 21 11 N 1017,4 24 0 0,0
14.07.2019 07:00:00 14,9 13,3 11 6 15 8 N 1017,5 20 0 0,0
14.07.2019 06:00:00 15,1 13,3 9 5 19 10 N 1017,5 25 0 0,0
14.07.2019 05:00:00 15,7 13,5 13 7 21 11 N 1017,6 26 0 0,0
14.07.2019 04:00:00 16,2 13,5 11 6 18 10 N 1017,9 30 0 0,0
14.07.2019 03:00:00 16,3 13,2 11 6 18 10 N 1018,3 33 0 0,0
14.07.2019 02:00:00 16,9 13,2 12 6 18 10 N 1018,1 14 0 0,0
14.07.2019 01:00:00 17,0 12,9 8 5 22 12 N 1018,4 35 0 0,0
14.07.2019 00:00:00 17,5 12,6 9 5 13 7 NNW 1018,8 50 0 0,0
13.07.2019 23:00:00 18,0 12,4 10 5 18 10 N 1018,7 52 0 0,0
13.07.2019 22:00:00 18,8 11,8 16 9 24 13 N 1018,4 60 8 0,0
13.07.2019 21:00:00 19,9 12,2 19 10 31 17 N 1018,0 56 31 0,0
13.07.2019 20:00:00 21,9 11,0 21 12 32 17 NW 1017,4 44 41 0,0
13.07.2019 19:00:00 21,8 10,9 18 10 29 16 WNW 1017,4 41 33 0,0
13.07.2019 18:00:00 22,0 10,8 21 11 45 24 NW 1017,6 44 39 0,0
13.07.2019 17:00:00 22,7 10,8 26 14 37 20 NW 1017,8 43 28 0,0
13.07.2019 16:00:00 21,4 9,9 13 7 29 16 NNW 1018,2 50 15 0,0
13.07.2019 15:00:00 21,1 10,0 14 7 31 17 NW 1018,3 30 34 0,0
13.07.2019 14:00:00 20,3 11,2 13 7 26 14 NW 1018,7 19 4 0,0
13.07.2019 13:00:00 19,9 11,1 8 4 20 11 NNO 1018,8 46 10 0,0
13.07.2019 12:00:00 18,4 10,5 10 5 19 10 NNW 1018,9 32 11 0,0
13.07.2019 11:00:00 18,1 10,5 14 7 27 15 NNW 1018,8 29 29 0,0
13.07.2019 10:00:00 17,1 11,8 10 5 17 9 WNW 1018,8 19 6 0,0
13.07.2019 09:00:00 16,3 12,1 9 5 18 10 NW 1018,6 18 39 0,0
13.07.2019 08:00:00 15,2 12,7 5 3 10 5 WNW 1018,3 17 32 0,0
13.07.2019 07:00:00 14,1 12,5 6 3 10 5 WZW 1018,0 14 37 0,0
13.07.2019 06:00:00 12,4 11,8 6 3 10 5 ZW 1017,8 15 0 0,0
13.07.2019 05:00:00 12,6 11,7 9 5 11 6 ZW 1017,5 11 0 0,0
13.07.2019 04:00:00 13,4 11,8 7 4 11 6 ZW 1017,2 20 0 0,0
13.07.2019 03:00:00 14,4 12,6 9 5 13 7 W 1016,6 25 0 0,0
13.07.2019 02:00:00 15,2 12,5 6 4 12 7 WNW 1016,6 28 0 0,0
13.07.2019 01:00:00 15,9 12,8 8 4 13 7 WNW 1016,7 34 0 0,0
13.07.2019 00:00:00 16,2 12,9 9 5 20 11 WNW 1016,3 37 0 0,0
12.07.2019 23:00:00 15,7 12,4 6 3 9 5 W 1016,0 42 0 0,0
12.07.2019 22:00:00 16,8 13,5 5 3 20 11 NW 1015,3 48 9 0,0
12.07.2019 21:00:00 17,8 13,5 16 9 32 17 N 1014,5 49 18 0,0
12.07.2019 20:00:00 19,0 12,5 22 12 65 35 N 1013,6 47 20 0,0
12.07.2019 19:00:00 24,9 10,0 34 18 56 30 WNW 1011,4 46 24 0,0
12.07.2019 18:00:00 25,9 8,8 34 18 61 33 W 1010,8 27 55 0,0
12.07.2019 17:00:00 24,4 11,7 34 18 51 27 W 1011,5 28 31 0,0
12.07.2019 16:00:00 25,2 12,8 33 18 46 25 W 1011,4 23 33 0,0
12.07.2019 15:00:00 25,3 11,5 29 16 50 27 W 1011,5 19 50 0,0
12.07.2019 14:00:00 24,6 11,9 33 18 49 26 W 1011,9 19 47 0,0
12.07.2019 13:00:00 23,9 10,2 29 16 45 24 W 1012,0 20 24 0,0
12.07.2019 12:00:00 22,8 11,8 26 14 40 21 W 1012,2 18 24 0,0
12.07.2019 11:00:00 21,8 14,9 12 6 22 12 W 1012,1 34 6 0,0
12.07.2019 10:00:00 19,7 13,6 12 6 24 13 WZW 1012,3 38 13 0,0
12.07.2019 09:00:00 18,9 13,5 14 8 19 10 ZW 1012,2 41 22 0,0
12.07.2019 08:00:00 18,1 12,8 7 4 13 7 ZZO 1012,0 38 18 0,0
12.07.2019 07:00:00 16,4 13,1 10 6 16 9 ZZO 1012,1 32 0 0,0
12.07.2019 06:00:00 16,2 13,1 9 5 19 10 ZZO 1011,9 32 0 0,0
12.07.2019 05:00:00 16,3 13,4 13 7 18 10 ZZO 1012,0 30 0 0,0
12.07.2019 04:00:00 16,9 13,4 10 5 18 10 ZZO 1012,3 20 0 0,0
12.07.2019 03:00:00 16,6 13,7 13 7 19 11 ZO 1012,9 24 0 0,0
12.07.2019 02:00:00 15,8 14,3 16 9 23 12 OZO 1013,1 19 0 0,0
12.07.2019 01:00:00 17,1 14,9 16 9 24 13 OZO 1013,6 23 0 0,0
12.07.2019 00:00:00 17,1 15,1 18 10 24 13 O 1013,8 18 0 0,0
11.07.2019 23:00:00 17,5 15,8 14 8 20 11 ZO 1014,0 24 0 0,0
11.07.2019 22:00:00 18,5 16,5 14 7 18 10 OZO 1013,7 27 0 0,0
11.07.2019 21:00:00 20,3 15,9 6 3 10 6 ZO 1013,4 52 0 0,0
11.07.2019 20:00:00 21,3 11,9 4 2 15 8 WZW 1013,1 19 13 0,2
11.07.2019 19:00:00 18,5 14,8 14 7 53 28 W 1013,9 7 0 0,4
11.07.2019 18:00:00 25,6 10,6 16 9 30 16 ZW 1012,4 51 28 0,0
11.07.2019 17:00:00 25,7 11,1 8 4 25 13 W 1012,6 55 31 0,0
11.07.2019 16:00:00 24,3 12,3 11 6 23 12 W 1013,3 37 42 0,0
11.07.2019 15:00:00 23,1 12,7 8 4 23 13 ZO 1013,9 20 57 0,0
11.07.2019 14:00:00 20,8 13,7 6 4 22 12 ONO 1014,5 19 50 0,0
11.07.2019 13:00:00 18,8 16,2 14 7 19 11 NO 1014,9 15 3 0,2
11.07.2019 12:00:00 18,2 14,1 9 5 15 8 WNW 1015,6 11 0 0,2
11.07.2019 11:00:00 19,4 11,7 2 1 10 5 NW 1015,1 25 0 0,0
11.07.2019 10:00:00 18,9 11,0 6 4 10 5 N 1014,9 36 0 0,0
11.07.2019 09:00:00 17,6 10,5 2 1 6 4 NNO 1015,0 30 0 0,0
11.07.2019 08:00:00 17,5 9,6 0 0 5 3 N 1015,2 40 0 0,0
11.07.2019 07:00:00 16,6 9,8 0 0 5 3 N 1015,1 39 0 0,0
11.07.2019 06:00:00 16,4 8,6 3 1 6 4 ZO 1015,0 42 0 0,0
11.07.2019 05:00:00 17,2 8,1 6 4 9 5 Z 1014,8 43 0 0,0
11.07.2019 04:00:00 17,2 8,3 4 2 7 4 ZZW 1015,2 50 0 0,0
11.07.2019 03:00:00 16,9 7,5 3 2 9 5 ONO 1015,8 50 0 0,0
11.07.2019 02:00:00 18,3 7,1 6 4 13 7 Z 1015,7 55 0 0,0
11.07.2019 01:00:00 20,7 7,3 3 2 5 3 O 1015,8 54 0 0,0
11.07.2019 00:00:00 20,2 6,2 2 1 10 5 W 1016,5 49 0 0,0

tt = temperatuur
td = dauwpunt
ff = windsnelheid
fx = windstoten
dd = windrichting
ppp = luchtdruk
vv = zicht
sd = Zonneschijnduur
rr = neerslag

Weerstations in de omgeving